Wind_Speed
44 44 47 51 53 53 51 50 48 45 40 36 35 36 35 35 35 34 33 32 31 31 34 34 36 40 41 38 34 29 28 30 33 33 32 30 27 27 28 29 30 31 29 25 24 23 23 23 23 25 28 29 30 30 30 29 27 26 25 24 23 23 24 24 25 25 25 24 23 22 22 20 20 20 21 21 21 20 20 20 21 21 20 21 20 20
43 47 52 55 54 51 49 48 47 46 43 38 35 36 37 37 38 35 32 33 31 33 37 36 37 41 42 40 36 31 29 30 33 33 32 31 28 27 28 29 29 29 28 27 27 26 25 25 25 25 27 29 31 31 31 31 29 27 27 26 24 24 26 26 25 25 25 24 23 22 22 21 21 22 22 22 22 22 23 22 22 21 21 21 21 21
44 50 54 53 51 49 48 48 47 46 44 41 37 35 36 38 38 35 34 34 32 33 36 35 38 42 42 41 39 36 34 33 33 34 34 32 31 30 29 29 28 27 28 29 29 28 27 27 26 27 27 29 30 32 32 32 31 30 29 27 26 26 26 26 26 26 25 24 24 23 23 22 23 24 24 24 24 25 25 23 22 21 21 21 21 21
48 51 52 50 49 49 50 49 47 46 43 41 39 37 37 37 35 34 34 33 34 36 36 35 39 43 42 42 43 40 38 37 35 36 37 35 33 31 29 29 29 29 30 31 31 30 30 29 29 28 28 28 29 32 34 34 33 32 31 29 27 27 26 26 26 26 25 25 25 25 24 25 25 25 25 26 26 25 24 22 21 20 20 20 20 21
52 51 47 47 49 51 51 50 47 46 44 43 42 42 40 38 36 35 32 28 29 32 35 34 37 46 47 45 47 43 39 40 38 37 37 36 34 31 30 30 29 28 29 31 32 31 32 32 31 30 29 29 29 31 33 35 35 33 32 30 29 28 27 27 27 26 27 27 27 27 26 26 26 26 26 26 25 24 23 22 21 20 20 21 21 21
53 52 47 46 50 52 50 50 50 48 46 45 46 47 43 37 35 34 28 24 24 26 31 29 24 33 42 43 45 43 40 41 39 39 40 37 35 32 31 29 26 24 25 28 30 31 33 34 34 33 31 31 30 29 30 33 35 34 33 32 31 30 29 28 28 28 29 29 29 29 28 28 27 27 26 25 24 24 23 23 22 23 24 24 24 24
53 52 49 46 47 50 49 49 51 50 47 47 50 50 43 36 32 30 26 23 24 24 24 25 21 23 31 36 38 36 37 40 37 38 39 37 33 30 29 28 24 23 23 25 27 29 31 33 35 36 33 31 29 27 27 29 32 35 35 34 33 32 31 30 29 29 30 31 31 31 30 29 29 29 27 26 26 26 25 25 26 26 27 27 27 26
51 52 51 48 45 47 50 52 52 51 48 49 50 46 42 39 31 27 27 25 26 24 21 25 27 26 35 42 40 37 38 39 39 38 36 33 30 27 27 27 26 26 24 24 25 26 27 29 31 33 32 29 26 24 24 25 27 31 34 35 34 33 33 32 31 31 31 32 32 32 32 31 31 30 28 28 28 28 28 28 28 29 29 29 29 29
51 53 54 53 49 48 52 54 52 50 48 47 43 39 41 39 32 29 27 27 28 24 23 29 26 20 32 44 40 39 44 45 44 41 36 32 29 28 28 28 29 27 26 25 24 25 25 27 28 29 28 26 25 24 23 23 23 27 31 34 36 36 35 34 33 33 33 33 33 33 34 33 32 31 30 30 30 29 30 29 29 30 30 30 30 30
46 49 52 53 54 54 53 50 49 50 48 42 35 34 35 33 35 32 25 27 25 20 25 33 30 18 26 40 38 38 46 48 44 40 36 33 31 30 29 29 30 29 28 26 23 23 24 25 27 27 27 26 26 26 24 25 25 27 29 32 36 37 37 37 36 35 34 33 34 35 35 35 33 32 32 32 32 31 31 30 30 31 31 31 31 31
45 44 45 48 51 53 51 46 45 47 45 39 30 28 27 25 34 34 31 32 19 15 31 37 35 25 21 35 40 43 50 47 42 39 36 33 30 30 30 30 29 26 25 23 21 21 21 23 25 26 28 28 27 28 28 28 28 29 30 32 34 35 37 38 38 38 37 35 36 35 35 35 33 33 34 34 33 32 32 31 30 30 30 31 31 31
46 39 38 45 49 47 46 44 42 42 43 40 31 27 23 20 25 26 29 30 10 12 37 42 38 31 24 31 29 31 43 42 40 41 36 32 29 28 29 26 24 22 22 22 21 22 21 22 24 25 28 29 29 30 29 29 29 30 31 32 34 35 36 38 39 40 40 38 37 36 35 34 33 34 35 35 34 33 32 31 30 30 30 30 30 31
47 43 36 38 43 44 43 40 37 36 41 43 37 31 22 12 13 14 14 16 13 21 34 32 30 31 39 52 38 27 32 30 29 31 26 25 23 21 21 21 22 24 25 25 22 21 21 22 24 24 25 27 28 29 28 29 29 30 31 32 34 34 35 37 39 41 41 41 39 37 35 34 33 34 34 34 33 32 32 31 30 31 30 30 30 30
36 43 41 36 36 41 46 42 38 39 44 47 46 41 29 13 6 10 9 7 14 27 28 20 22 25 39 55 50 44 42 35 35 36 31 31 29 28 29 27 28 28 26 25 23 22 22 21 22 23 24 26 27 28 29 29 30 30 31 31 31 31 32 35 37 40 42 42 41 38 36 35 34 34 34 34 33 32 32 31 31 30 30 30 30 29
22 25 37 42 37 39 48 50 48 50 51 53 54 49 40 26 12 7 9 9 10 13 14 15 16 17 28 37 37 37 40 42 46 45 39 38 36 35 34 29 25 22 20 21 21 21 21 21 22 23 24 26 27 28 29 29 29 29 29 28 28 28 29 31 34 37 40 42 42 39 37 35 35 35 34 34 33 32 32 31 30 30 29 29 29 28
23 21 31 40 41 41 46 51 53 49 46 49 50 46 44 40 27 14 12 18 15 6 8 18 20 26 38 41 35 27 24 25 26 25 22 20 21 23 24 22 20 20 20 20 19 18 18 19 22 24 25 27 27 28 28 28 28 28 27 27 28 29 29 30 32 34 37 40 42 41 39 36 35 36 35 34 33 32 31 31 30 29 28 29 28 28
23 24 29 31 37 42 42 45 51 48 43 45 48 48 50 48 39 23 12 14 14 7 11 20 28 38 40 43 46 39 30 25 22 23 22 20 19 20 22 22 24 25 24 23 22 19 19 21 23 25 27 27 28 28 27 27 27 27 27 27 27 27 28 30 31 32 34 38 42 43 41 38 37 37 36 35 33 32 31 31 30 29 29 29 28 28
25 24 27 25 30 40 41 41 49 53 49 45 48 54 51 41 36 27 9 2 5 5 11 21 34 39 30 34 43 40 41 43 40 39 37 34 33 32 33 34 34 35 32 30 28 26 25 24 23 24 26 27 28 28 27 27 27 28 29 28 28 26 26 27 29 30 32 35 40 42 42 41 39 38 37 36 34 34 34 33 31 31 31 30 29 28
34 26 26 27 28 31 36 41 45 50 53 48 47 53 45 29 29 30 14 5 7 5 7 19 32 36 36 42 40 31 32 35 30 27 25 26 30 34 38 39 36 35 33 32 33 31 28 24 21 22 23 25 27 27 27 28 29 31 30 30 30 28 26 27 28 29 29 32 36 40 43 42 41 40 39 37 36 36 37 35 34 34 33 32 31 30
41 29 27 32 31 29 34 44 46 46 51 50 44 46 46 35 31 36 30 20 14 8 8 13 16 26 47 58 51 42 36 26 17 15 14 17 23 27 28 26 26 26 26 27 28 27 27 25 23 23 22 24 25 26 28 29 31 32 31 31 29 27 27 27 27 27 27 28 33 38 42 43 43 42 42 41 40 40 40 39 38 37 36 35 34 33
42 33 29 31 29 30 35 44 51 52 54 55 48 44 48 43 34 33 37 35 22 9 6 7 9 27 51 53 48 48 45 38 33 29 25 22 21 21 18 18 23 27 29 29 27 27 28 27 25 22 21 22 23 25 27 29 30 31 30 29 28 27 27 26 26 26 25 26 29 34 38 41 43 44 45 44 44 44 43 42 41 40 39 39 38 36
41 38 37 33 29 34 39 44 51 54 55 59 60 57 57 54 41 25 22 32 33 20 11 7 10 31 46 39 37 40 39 40 40 37 34 28 26 27 27 29 34 37 35 31 29 27 26 24 21 20 20 21 22 24 26 28 29 29 29 29 29 28 27 26 26 25 25 25 27 29 32 35 39 42 44 45 45 46 45 44 43 42 42 42 40 39
42 41 39 37 36 36 39 41 46 49 51 57 61 61 59 53 47 31 18 26 35 30 25 14 10 32 47 40 38 39 36 36 32 30 30 28 31 34 32 31 34 34 31 27 24 21 19 19 20 20 20 20 21 23 25 26 27 27 29 29 29 28 27 26 26 25 25 25 25 26 28 31 34 36 39 41 42 43 44 44 44 44 44 44 43 42
40 38 34 34 36 38 38 40 45 46 45 49 54 57 55 50 52 47 36 35 34 31 31 16 8 34 52 47 44 41 36 35 30 25 23 21 24 25 21 23 26 26 24 20 18 18 18 19 19 18 17 18 19 22 23 25 26 27 28 28 27 27 26 25 25 25 25 25 24 25 25 26 28 30 32 33 34 35 36 37 38 39 41 41 42 42
40 37 33 24 17 22 28 29 34 39 36 38 47 55 54 51 53 50 42 36 29 33 40 19 11 43 58 48 44 38 31 29 24 20 21 21 23 24 22 23 25 25 23 19 18 20 20 21 19 16 15 16 19 21 22 24 25 26 27 28 28 27 26 26 26 26 26 24 24 23 22 22 23 24 25 26 28 28 28 29 30 31 32 34 36 37
45 42 41 30 13 10 16 18 29 40 38 34 39 50 54 51 51 51 45 34 26 35 44 31 28 52 55 44 43 40 32 30 27 25 27 27 29 30 28 25 25 25 22 21 23 25 25 25 22 19 19 21 22 23 24 25 26 26 27 27 27 26 26 27 27 26 25 24 23 22 20 20 20 20 21 22 23 24 24 26 26 27 28 30 31 33
41 42 45 42 34 28 25 23 28 36 39 37 37 44 54 56 55 55 48 39 36 38 40 41 47 56 54 48 47 42 36 35 35 34 34 32 31 31 30 29 28 27 25 26 28 28 28 26 23 23 25 27 27 27 27 27 28 28 27 26 25 26 26 26 26 26 25 24 23 21 20 20 20 20 20 20 21 22 23 25 26 27 29 30 31 32
40 42 44 45 46 43 37 29 23 22 29 36 37 40 49 52 53 54 49 46 48 37 30 41 52 55 59 59 51 45 43 42 43 43 41 36 34 34 35 35 32 30 30 33 34 32 31 28 26 29 31 30 31 30 29 28 27 27 26 26 26 27 26 26 25 25 24 23 22 21 21 21 20 20 20 20 21 21 22 24 25 26 27 28 29 30
43 44 47 48 51 54 51 44 37 32 30 31 34 36 42 45 47 51 53 54 51 38 35 46 49 51 61 62 55 54 53 50 49 47 40 35 33 33 34 34 34 33 33 36 39 38 37 36 34 34 32 32 32 31 29 27 25 25 26 27 28 27 26 25 24 23 22 21 20 20 20 20 19 19 20 20 21 21 22 23 23 24 25 25 25 26
44 45 48 49 50 55 57 55 53 48 40 38 38 39 41 44 45 49 53 56 52 44 45 49 47 50 61 63 59 58 57 53 50 45 39 36 34 32 33 37 38 37 37 38 41 42 41 39 37 35 35 35 33 31 28 24 24 25 27 28 28 26 25 23 22 21 20 20 19 19 18 18 17 18 18 18 19 19 20 20 21 21 21 22 22 23
44 43 45 47 48 50 54 55 54 51 47 44 43 43 44 43 44 47 50 53 51 48 50 51 51 58 64 64 62 60 57 55 52 49 47 45 39 36 39 44 45 45 46 46 45 42 37 33 34 37 37 36 34 31 27 24 25 26 28 29 28 27 25 23 22 21 20 19 19 17 17 16 16 16 16 16 16 16 17 18 18 19 19 20 20 21
46 43 40 40 40 43 48 47 47 49 49 47 46 46 44 44 45 48 52 55 56 55 55 54 57 62 61 60 63 63 62 61 59 58 56 52 49 47 49 53 53 54 54 52 48 42 35 31 33 36 36 35 34 30 26 26 27 28 29 29 28 27 25 24 23 21 20 20 18 18 17 17 16 16 16 16 16 16 17 18 18 18 18 18 18 19
39 40 39 35 34 40 46 45 45 45 37 37 47 50 48 50 53 52 54 58 59 59 57 56 60 61 55 55 60 60 61 64 64 62 60 58 57 55 55 55 55 55 55 52 46 39 33 32 33 35 37 35 31 27 26 28 30 30 29 29 28 27 25 24 24 23 21 20 19 19 19 18 18 18 17 17 17 18 18 18 18 18 17 18 19 20
24 28 32 32 30 33 37 38 39 32 22 30 48 53 50 51 54 55 56 57 58 59 59 61 63 60 55 56 58 54 55 58 58 58 58 56 55 51 48 48 48 47 47 44 38 33 32 32 33 36 37 34 29 28 29 32 33 31 31 30 29 28 27 27 26 24 23 22 21 21 21 20 20 20 19 19 19 19 19 18 18 17 18 20 21 21
16 17 19 20 19 20 24 26 20 14 21 38 48 47 47 48 51 55 57 56 57 58 59 62 62 58 56 56 55 51 51 51 50 52 51 49 49 49 46 44 41 40 39 36 33 31 30 30 33 36 34 30 29 30 32 35 35 33 33 33 31 30 30 30 29 27 26 25 24 24 23 23 23 22 22 22 21 20 19 19 19 20 21 21 21 20
19 15 13 12 11 10 15 20 13 8 19 36 41 42 43 42 44 50 53 56 59 58 59 62 59 57 56 53 50 49 48 48 49 49 46 46 50 52 49 44 39 37 37 35 33 31 29 28 30 31 31 30 31 33 36 37 37 36 37 37 35 34 34 33 32 30 29 28 27 27 26 26 25 25 24 24 22 21 21 22 22 22 22 21 19 19
25 23 20 17 13 10 10 14 16 14 16 26 35 39 40 40 44 49 53 56 56 54 58 60 55 54 53 49 47 48 48 51 53 48 45 49 53 50 46 42 38 36 37 37 36 34 32 29 28 28 30 31 33 35 37 37 37 39 40 39 38 37 36 35 34 32 31 31 31 31 30 29 28 27 26 25 24 24 24 25 24 23 22 20 19 20
22 24 25 21 15 13 11 10 10 10 11 22 32 33 32 34 38 44 51 55 53 48 52 54 50 48 47 45 49 53 53 56 58 53 52 54 51 45 42 41 40 37 35 36 38 37 34 29 28 29 31 32 35 36 36 36 39 40 40 40 40 39 37 34 32 31 32 33 34 35 34 33 32 31 29 28 27 27 27 26 25 24 22 21 21 21
20 20 22 20 17 16 13 8 5 4 7 18 25 25 25 25 27 31 40 49 51 47 47 49 47 44 44 46 51 54 53 57 61 61 60 55 46 42 42 42 42 41 37 35 36 37 36 31 29 30 32 34 35 34 34 36 39 41 41 40 40 39 36 31 28 29 30 32 35 37 38 38 37 35 34 32 30 29 28 27 26 25 24 24 23 22
22 21 22 22 22 23 19 14 13 14 15 18 16 11 9 12 18 22 24 33 44 43 42 47 48 46 47 49 51 51 52 57 60 59 57 51 44 40 38 35 35 36 35 33 33 34 35 34 33 33 34 34 33 32 32 36 40 42 41 40 40 38 33 28 26 26 28 30 33 35 37 38 37 36 36 34 32 31 30 29 28 27 27 26 25 24
24 26 26 26 26 26 23 18 19 26 29 27 20 12 4 4 15 25 23 29 40 39 36 40 43 42 41 42 44 47 49 50 50 46 42 40 38 36 34 31 30 29 29 29 30 32 34 34 35 35 33 32 31 30 32 37 40 41 41 41 40 36 31 28 27 27 27 29 30 30 32 33 33 34 35 35 34 33 32 31 30 29 29 28 27 26
25 25 25 27 28 28 27 22 19 27 35 33 28 25 19 13 20 27 25 26 31 32 32 34 35 33 29 28 33 38 40 39 40 38 35 35 37 37 34 30 27 26 27 28 29 31 34 36 37 36 34 32 30 30 33 37 41 42 42 41 38 34 32 31 30 28 28 28 28 28 29 30 31 32 34 35 36 35 33 33 32 31 30 29 28 28
22 20 21 26 27 24 23 19 12 18 31 36 34 32 30 28 29 29 27 26 28 32 34 35 35 33 30 30 33 36 37 37 37 37 38 39 39 37 32 29 27 26 24 26 29 33 34 36 37 37 35 33 31 32 36 39 42 43 43 40 36 34 35 34 31 31 30 28 27 28 28 29 30 31 33 35 36 35 34 33 32 31 31 30 29 29
22 21 20 24 24 20 21 20 15 19 28 34 35 32 31 31 32 30 30 32 34 35 36 35 35 34 34 35 36 37 38 38 37 37 39 39 38 35 32 31 32 32 28 25 27 30 34 37 39 39 37 35 34 36 39 41 43 44 41 38 36 36 36 34 32 32 30 28 28 28 28 29 30 31 33 34 34 34 34 33 32 32 31 30 30 30
28 28 26 28 30 28 26 28 28 28 29 32 34 32 29 31 32 31 33 37 38 38 38 38 36 35 36 37 39 39 40 39 37 38 38 36 36 37 35 33 34 35 33 29 27 28 33 37 39 39 39 37 36 37 41 43 44 42 38 35 35 35 34 33 33 32 30 29 29 28 29 30 31 32 33 33 33 34 34 33 32 32 31 31 31 30
32 32 30 30 33 35 36 36 34 31 30 32 34 32 29 31 34 33 34 39 43 42 41 40 39 37 37 38 40 41 41 39 36 37 37 35 35 36 35 33 32 34 34 32 30 30 32 36 40 41 40 38 37 39 42 44 43 39 35 34 34 34 33 33 33 32 31 31 30 29 29 30 31 32 33 33 33 33 34 33 32 32 32 32 30 30
34 31 30 29 30 33 34 35 35 33 33 34 35 34 32 33 34 34 35 41 46 44 42 42 42 40 38 39 40 40 40 38 36 38 40 38 37 37 35 33 33 34 35 35 34 33 34 37 40 41 39 38 39 41 43 43 40 36 33 32 33 33 33 34 33 33 33 31 30 30 30 30 31 32 32 31 32 33 33 33 33 33 32 31 30 30
36 33 31 30 32 34 35 36 36 35 37 40 40 40 38 35 35 37 38 42 45 44 43 44 44 42 41 41 42 43 44 42 41 42 42 38 36 36 35 34 35 36 37 39 39 38 38 40 41 41 39 38 40 42 42 41 37 34 31 31 32 32 33 33 33 34 33 31 30 30 31 30 30 30 30 30 31 31 32 33 32 32 31 30 30 29
33 31 31 30 32 35 36 38 38 38 41 44 43 43 41 38 37 39 41 43 45 46 46 46 45 45 44 44 45 47 47 45 43 42 38 34 33 34 33 33 34 35 37 41 42 41 40 40 41 40 39 38 40 40 40 37 36 35 33 32 33 33 33 33 34 34 33 32 32 32 32 31 31 30 29 30 30 30 31 31 31 31 31 29 28 28
34 34 35 33 34 39 42 43 43 43 44 45 45 45 44 41 41 45 47 49 51 50 48 47 46 45 45 46 47 48 49 47 42 35 30 29 30 29 27 26 27 28 30 33 37 39 38 38 39 39 38 39 40 39 38 37 37 38 36 35 35 35 34 33 34 34 33 33 33 33 32 32 31 30 30 29 29 30 30 31 31 30 30 28 28 27
45 45 44 41 42 45 47 45 44 44 46 47 47 47 46 45 47 51 54 55 56 54 52 50 47 44 43 43 45 46 48 47 40 32 28 27 25 24 25 25 24 24 24 24 26 29 30 31 34 36 36 36 36 36 37 38 38 38 37 37 36 35 34 34 34 35 35 35 34 33 33 32 31 31 30 30 30 31 31 31 30 29 29 28 28 27
Wind_Direction
204 206 209 212 214 215 217 218 220 224 226 227 226 227 229 229 231 232 233 237 240 244 248 250 257 262 263 262 263 264 263 261 260 260 261 263 263 262 259 257 255 253 253 253 253 254 256 258 260 260 260 257 255 255 254 253 251 250 250 251 252 253 253 253 254 255 257 258 260 260 262 264 264 264 264 264 265 265 264 263 262 263 264 267 270 272
206 210 213 216 217 217 219 220 221 223 226 228 228 229 231 232 234 235 235 237 240 247 252 255 260 263 263 263 264 264 262 259 260 262 262 264 267 268 265 260 259 259 259 258 255 253 254 255 256 257 258 258 255 254 255 256 256 254 252 251 251 252 254 255 257 258 259 260 261 261 260 261 260 259 260 261 262 261 260 260 262 264 266 269 272 275
208 215 218 219 219 218 220 221 221 223 225 227 229 231 233 234 237 238 240 240 242 249 256 259 263 265 263 262 262 263 262 260 259 261 263 264 266 268 268 265 263 263 263 261 256 253 252 253 255 255 254 256 256 255 254 255 255 254 253 252 250 251 253 256 259 260 262 263 262 261 258 256 255 255 256 256 257 258 259 261 264 268 271 274 275 276
207 217 220 219 219 219 220 221 221 222 224 226 229 231 233 234 237 239 241 244 245 250 257 261 264 266 264 262 261 259 260 259 259 261 262 264 266 268 269 265 261 263 264 262 258 253 252 251 252 253 253 254 254 253 253 253 254 254 255 255 254 254 254 255 258 260 262 262 261 259 258 255 254 254 254 256 259 263 269 273 274 275 276 275 274 274
213 220 220 217 219 221 220 220 219 220 222 225 228 231 233 234 236 241 245 249 251 252 255 259 265 265 262 260 259 256 258 259 259 261 262 264 267 269 267 260 258 265 266 263 260 255 253 253 253 254 253 253 252 252 252 253 255 256 257 257 257 256 255 254 256 258 259 259 259 259 259 258 257 258 259 262 267 273 279 280 281 279 274 270 269 270
217 220 219 217 219 220 219 220 219 219 220 223 227 230 233 234 235 241 244 245 248 249 249 250 260 267 263 260 260 257 257 259 260 260 261 263 266 266 263 257 260 271 271 264 261 257 255 255 255 255 253 251 250 251 253 253 254 256 256 256 257 256 257 256 255 255 256 257 258 259 260 261 262 263 264 267 271 274 275 274 274 272 269 268 267 266
217 220 222 220 219 218 218 221 221 220 219 223 228 228 228 231 232 235 236 235 238 242 246 242 243 264 269 263 261 260 260 259 259 259 260 261 263 263 261 258 264 275 277 269 262 259 257 255 255 255 254 252 251 253 255 256 254 253 254 255 256 257 257 258 257 255 255 256 258 259 260 262 263 264 266 269 270 271 271 270 269 269 270 270 269 269
217 220 222 221 222 220 217 220 222 220 217 224 231 227 224 227 227 229 233 234 239 244 249 245 243 259 268 263 260 258 260 261 259 257 257 257 259 263 263 262 266 274 279 275 264 259 256 254 252 252 252 252 252 252 253 255 254 251 252 254 256 257 257 257 257 256 256 256 258 259 260 261 262 264 266 267 268 268 269 269 269 270 271 272 273 274
219 220 222 221 220 220 222 224 223 219 218 224 230 228 226 225 224 228 231 234 242 252 254 245 242 256 266 264 263 261 259 260 259 258 257 259 263 268 266 263 264 272 281 277 265 259 255 253 251 248 246 247 246 245 246 250 251 249 249 250 252 253 253 254 254 255 256 256 257 258 259 260 262 264 265 265 266 267 268 269 271 272 273 275 276 276
218 222 226 223 219 220 225 225 222 220 218 221 227 230 227 224 225 227 230 238 246 254 253 246 237 243 267 264 260 260 259 258 259 261 261 263 267 268 264 262 265 273 280 276 266 261 255 252 251 244 238 236 236 238 241 245 246 245 245 246 248 249 250 251 252 253 254 255 256 257 258 260 262 264 264 264 265 266 267 269 271 273 274 275 275 275
217 223 226 224 224 226 226 223 222 222 218 215 221 225 222 221 226 228 232 241 250 257 251 248 238 233 264 268 256 254 258 260 263 262 260 262 264 263 263 264 267 272 274 271 269 266 257 249 248 243 238 234 232 233 236 240 243 246 248 249 251 251 250 250 249 250 251 252 253 255 258 259 261 263 263 264 265 267 268 270 271 272 273 273 273 273
215 220 223 225 229 228 225 224 225 223 217 215 216 213 209 210 220 226 231 233 237 256 249 247 239 227 239 257 257 259 261 262 262 261 262 264 263 262 261 259 261 269 273 274 274 270 261 250 246 245 242 238 236 236 237 241 245 249 252 255 257 257 255 253 250 249 249 250 251 253 256 259 260 261 262 263 265 266 268 269 270 271 271 272 273 273
216 219 221 226 227 224 222 218 212 213 215 215 211 203 197 190 207 214 217 222 219 235 245 246 232 222 235 247 250 256 261 260 258 261 262 259 258 256 254 252 258 270 278 279 277 269 261 253 246 245 245 242 240 241 243 246 250 254 257 260 261 262 260 258 254 250 248 248 250 252 254 257 259 260 261 262 263 264 266 268 269 270 272 272 272 273
217 222 224 225 224 221 220 210 197 202 207 208 207 200 193 185 196 212 204 212 225 233 243 237 217 222 242 250 251 250 252 253 254 258 258 255 258 261 261 263 268 274 276 275 271 263 257 251 245 243 243 241 241 243 246 250 255 258 260 261 263 265 263 261 259 255 251 248 248 250 252 255 257 258 259 261 261 263 265 267 269 271 272 272 272 273
212 222 223 222 221 218 218 216 213 214 208 208 210 205 199 197 191 209 210 210 223 235 235 203 194 223 239 247 254 253 253 255 258 261 261 261 264 265 264 264 268 273 270 267 265 258 255 253 249 246 243 243 243 244 247 251 255 257 259 262 265 268 267 265 263 259 256 252 249 249 251 254 256 257 259 259 260 262 264 267 270 272 273 273 273 273
219 230 229 225 223 220 218 220 221 217 208 207 210 206 206 207 206 212 221 222 222 225 215 199 206 232 237 242 248 249 251 251 252 254 253 260 266 257 250 253 264 272 267 265 264 257 257 255 251 249 248 248 249 249 250 251 252 254 258 263 266 267 267 266 265 262 259 255 251 249 249 252 254 256 257 259 260 262 264 266 268 270 271 272 273 273
217 231 236 228 224 223 222 220 216 212 209 206 203 205 212 212 209 211 218 221 215 224 234 220 229 240 244 250 248 241 241 237 231 238 243 253 257 244 242 253 268 274 269 263 258 256 263 262 255 252 251 251 253 253 254 253 252 254 258 263 267 266 264 264 266 266 261 256 253 250 250 251 253 255 257 259 260 261 262 264 266 269 270 271 272 273
222 229 235 229 224 225 225 220 215 215 215 207 203 209 212 210 209 211 212 175 182 235 240 226 238 244 242 252 252 245 245 247 247 252 257 259 257 251 252 258 265 268 266 262 260 263 269 267 258 254 253 253 253 255 255 254 254 256 260 265 268 268 266 265 266 266 263 258 254 253 252 251 252 254 256 257 258 259 259 261 265 268 269 269 270 269
232 236 242 239 233 229 223 216 212 213 214 212 214 215 208 199 206 208 205 203 202 226 244 229 239 243 237 242 248 247 248 251 251 254 258 262 260 254 252 254 257 262 262 262 266 267 264 259 255 257 257 256 255 255 255 255 256 259 262 265 267 267 266 264 264 264 263 260 256 254 253 252 252 253 255 257 258 259 260 263 266 267 268 268 267 267
232 233 242 242 240 236 223 214 210 209 209 212 219 216 208 206 210 208 208 214 212 214 239 235 236 243 243 244 245 246 246 243 235 235 247 264 260 247 243 246 250 257 261 264 267 263 256 257 261 265 263 259 256 256 256 256 258 259 260 262 263 262 260 259 260 262 261 259 257 255 255 254 254 255 257 258 259 260 262 264 266 267 267 266 266 267
227 226 233 239 236 228 219 212 212 212 209 208 210 209 208 211 211 212 215 216 216 215 227 234 238 246 248 248 248 248 247 245 245 247 253 256 243 234 248 267 269 270 269 267 266 263 263 266 268 267 264 258 254 253 253 254 255 256 257 259 259 257 256 256 257 258 258 256 256 256 256 256 256 257 258 259 260 262 263 266 267 268 267 266 266 267
221 220 226 230 224 220 223 220 216 216 213 210 210 209 210 207 201 203 215 215 218 223 219 216 249 251 250 251 252 251 251 253 254 255 255 244 229 239 264 277 275 273 271 267 264 263 263 264 262 261 259 256 254 253 253 253 253 254 255 255 256 256 256 257 258 258 258 256 256 256 256 256 257 258 259 260 262 264 266 268 269 269 268 267 267 268
222 220 221 224 223 225 229 224 217 217 216 215 214 213 213 208 200 202 208 209 214 223 229 231 259 256 253 253 255 255 255 257 257 256 254 244 236 246 256 260 264 269 268 264 258 252 252 252 252 254 255 256 258 258 258 258 257 257 256 256 256 256 256 257 257 258 258 258 259 259 259 258 259 260 261 263 264 266 268 269 269 269 269 269 268 268
216 217 217 222 228 232 233 229 222 219 217 217 215 212 212 210 207 209 214 213 212 215 223 228 259 253 252 253 254 257 258 257 257 253 247 237 231 233 235 243 257 267 264 250 241 245 251 247 242 245 252 260 264 264 264 263 262 261 260 260 259 258 258 258 258 259 260 261 263 264 264 263 262 262 263 264 266 268 269 270 270 270 269 269 269 269
214 214 215 218 228 233 233 233 230 225 223 221 216 212 212 212 210 211 215 218 218 217 218 215 239 246 248 250 250 253 254 250 246 235 222 216 225 236 243 249 258 264 258 243 243 257 259 249 242 244 259 273 273 269 267 265 264 263 261 261 262 262 263 262 261 262 262 263 264 264 265 265 265 264 264 265 266 267 269 270 270 270 270 271 271 271
220 214 213 212 205 217 224 226 228 229 229 228 221 213 211 210 209 210 212 212 216 221 219 214 229 240 245 248 249 250 249 244 241 238 234 236 246 255 258 258 259 259 254 249 254 261 259 253 251 255 271 283 279 271 265 262 262 261 260 261 262 263 263 262 262 263 264 265 264 265 265 264 264 263 262 263 263 265 267 269 271 273 273 274 273 273
218 215 217 216 216 222 226 228 229 227 224 227 228 220 213 211 210 209 210 210 213 219 220 218 227 237 243 246 248 251 250 249 250 252 252 255 259 262 264 265 261 254 252 255 257 259 259 256 257 266 278 283 278 271 264 261 260 260 260 260 259 259 258 259 261 262 264 266 267 268 268 267 266 264 263 264 265 266 268 270 273 274 275 275 275 275
217 219 223 226 230 233 235 240 243 236 229 228 228 225 218 214 211 210 212 214 214 217 223 222 225 235 241 243 246 251 253 254 257 259 260 262 263 265 267 267 260 251 252 259 261 261 262 263 269 277 280 276 271 267 263 262 262 261 260 258 254 254 255 256 259 260 262 264 265 266 267 266 267 268 268 269 268 269 270 271 273 274 275 276 277 278
221 223 227 230 235 237 237 242 248 251 253 247 239 235 227 218 213 212 215 217 216 218 226 226 227 236 244 247 250 253 254 257 259 261 262 261 260 259 260 262 260 250 249 258 266 269 271 273 278 280 276 270 267 265 264 263 262 260 257 254 251 252 253 255 256 257 258 259 260 261 262 263 265 265 266 267 268 269 271 272 274 276 278 280 281 283
223 227 230 230 233 236 235 238 244 248 252 254 252 250 241 230 223 220 220 221 222 226 231 235 239 244 249 255 256 255 256 257 256 258 257 255 252 248 252 261 261 253 250 261 272 276 277 278 278 274 271 270 270 268 266 263 259 256 253 252 252 252 253 255 255 256 257 258 259 261 261 262 262 263 264 266 268 270 272 274 276 278 280 282 283 285
222 226 231 230 231 236 236 235 241 245 248 250 251 251 247 240 232 227 227 226 226 231 236 240 245 247 251 256 256 256 257 256 254 256 256 255 250 245 251 262 266 262 261 266 273 276 275 273 270 267 267 270 272 270 266 262 258 255 253 253 253 254 254 255 256 258 259 260 262 263 264 266 267 268 271 272 273 275 276 278 279 281 283 284 286 287
220 222 227 226 225 233 237 235 237 241 244 244 243 241 240 239 236 234 234 232 230 232 235 237 242 248 253 256 256 257 258 258 257 258 258 258 257 255 260 267 269 269 267 268 272 275 270 264 263 263 265 271 272 266 261 262 260 259 259 258 257 256 255 256 258 261 263 264 266 267 268 270 271 273 275 275 277 278 279 281 283 284 284 285 288 292
219 217 220 219 217 228 236 235 232 232 233 232 233 236 238 237 238 238 238 237 235 234 234 236 242 249 255 258 259 261 262 261 262 263 263 264 265 267 269 270 270 270 270 271 273 272 265 258 258 261 266 271 269 259 255 258 259 261 263 263 262 261 260 260 262 264 265 266 268 269 270 270 270 271 272 273 274 276 278 280 279 278 280 285 291 294
220 217 218 216 214 225 232 230 226 223 219 227 236 241 244 243 240 236 236 239 239 237 237 242 248 255 259 259 260 264 266 266 267 268 268 268 269 270 270 269 270 271 271 272 270 266 261 259 258 260 265 265 258 254 254 254 256 261 263 263 263 262 262 263 264 264 265 266 266 267 267 268 268 268 269 269 271 273 274 273 270 272 279 286 290 290
223 217 217 214 215 228 226 216 214 218 224 233 239 242 244 247 245 240 241 245 245 242 242 244 249 255 257 259 261 266 269 269 270 270 269 269 268 268 268 268 268 269 271 271 267 262 262 264 262 259 256 251 248 251 252 253 256 260 261 262 261 259 259 261 262 263 264 265 265 265 265 266 266 267 267 268 269 269 267 266 266 272 280 284 285 283
238 234 233 230 232 237 212 197 203 238 233 233 239 240 239 240 239 236 239 245 246 244 244 246 250 256 261 263 265 267 269 270 270 269 267 265 265 267 269 270 269 269 268 265 261 257 258 263 265 257 245 240 245 249 250 252 256 257 258 259 258 256 257 257 259 261 262 263 264 264 264 265 266 267 267 267 267 266 265 265 267 273 278 279 279 280
244 246 251 251 247 246 233 217 224 236 233 229 233 238 239 239 239 236 237 244 248 244 242 246 253 259 263 264 263 264 265 268 269 266 262 263 266 270 274 276 275 273 268 260 256 252 252 257 260 250 237 236 242 245 247 250 252 254 256 256 256 257 257 257 258 261 262 263 264 263 264 265 265 265 266 265 266 266 266 267 269 272 274 275 277 279
241 245 250 252 247 246 267 275 245 233 237 232 234 243 248 250 252 246 239 245 253 249 243 247 253 257 261 262 260 259 260 263 267 265 262 265 270 275 280 282 281 280 275 266 258 250 247 250 253 245 236 234 239 243 246 248 248 251 253 254 255 258 259 260 260 261 261 261 262 263 264 264 265 265 265 265 265 265 266 267 268 270 272 274 276 277
233 240 245 249 249 245 251 270 267 261 247 235 239 251 253 251 253 243 233 240 250 250 247 249 253 256 259 259 258 258 259 261 263 263 266 273 279 282 283 284 284 284 282 274 263 251 244 246 249 247 241 239 242 245 247 248 249 251 252 253 256 259 261 263 263 260 259 258 257 258 260 261 263 264 264 263 263 263 264 264 266 268 270 273 274 273
226 233 234 235 241 244 242 244 258 263 247 230 231 243 252 250 238 223 221 240 250 249 247 248 251 256 259 259 261 262 261 260 262 267 275 282 286 286 285 285 283 280 276 270 262 253 246 245 248 249 247 246 246 247 248 249 251 252 253 255 258 260 262 265 264 259 256 253 252 253 254 256 258 259 259 259 259 260 261 262 263 265 267 269 269 267
217 226 231 233 238 242 239 235 251 261 251 236 230 232 261 267 215 209 223 250 255 255 254 252 255 261 262 261 263 264 263 266 273 282 286 286 286 287 288 288 283 270 258 254 254 250 246 244 246 249 250 248 246 244 246 249 251 253 254 256 259 262 266 267 264 259 255 253 251 251 251 251 252 253 253 254 255 256 257 259 260 261 263 265 264 263
211 215 223 228 232 238 239 234 248 263 255 243 242 250 258 246 219 222 244 263 263 265 267 264 265 269 269 267 268 271 273 278 284 287 287 285 288 290 289 285 278 263 248 242 241 241 241 242 244 246 247 245 242 243 247 251 253 255 255 257 261 265 267 266 262 258 256 254 252 250 249 249 248 248 249 250 251 253 254 256 258 259 261 262 262 262
229 221 217 221 225 231 232 224 234 263 256 248 252 258 257 250 244 250 265 271 269 273 274 272 273 276 276 277 277 278 282 285 286 286 286 287 289 288 284 277 273 270 260 246 238 235 236 238 241 244 245 244 244 248 251 252 254 256 257 260 263 264 262 260 257 255 254 252 251 250 249 249 248 246 245 245 247 249 251 254 256 257 259 259 260 260
243 233 227 231 232 223 214 218 241 271 268 264 267 271 271 270 268 269 269 266 267 272 274 275 278 280 281 282 282 283 286 287 286 286 287 286 284 284 282 276 271 272 271 261 248 239 234 235 238 241 243 243 245 248 249 250 252 255 257 260 260 258 256 254 252 251 251 249 249 248 248 248 248 246 243 241 242 246 249 251 253 255 257 258 259 260
247 247 250 253 252 248 246 256 271 280 276 274 278 283 285 283 279 274 270 266 265 268 271 275 279 281 282 283 283 282 284 285 286 286 287 286 284 283 281 276 271 270 269 265 258 249 239 236 236 238 239 240 240 242 245 248 250 252 254 256 254 252 251 248 246 246 246 245 245 246 247 247 246 244 241 236 237 241 245 248 251 254 256 258 260 260
255 258 260 259 258 260 263 267 271 273 269 268 274 282 284 280 279 281 279 273 268 270 275 277 277 277 276 278 281 281 282 284 286 285 284 284 285 285 280 274 271 271 268 263 260 256 248 240 236 236 236 235 234 235 239 244 247 249 250 250 248 247 244 241 240 240 240 241 242 242 244 244 243 241 237 232 233 237 241 246 250 254 258 259 260 261
255 255 252 251 253 254 256 259 263 267 268 267 272 278 280 278 279 281 279 273 270 273 276 277 278 276 272 272 275 276 278 281 281 279 279 280 280 281 278 272 270 270 269 263 257 253 249 243 238 236 233 230 229 231 236 241 244 245 246 244 242 241 238 237 236 236 237 238 239 240 242 242 239 236 233 230 231 235 240 246 251 255 257 258 259 262
256 255 250 248 250 251 254 262 268 271 271 269 271 275 276 276 275 274 271 270 271 274 275 275 278 278 275 272 273 272 274 274 272 275 279 278 275 277 278 274 271 271 270 264 254 245 242 240 238 235 230 227 227 231 236 239 241 241 242 240 238 237 236 235 234 235 235 236 236 238 239 238 236 233 230 230 232 235 240 246 251 254 256 257 260 262
259 258 252 253 256 255 257 262 264 266 268 268 268 271 274 276 275 272 270 272 275 278 279 279 280 281 279 277 275 274 274 273 271 276 280 275 272 277 278 275 273 272 269 263 253 243 238 237 236 233 229 227 228 232 235 238 239 240 239 237 235 234 233 233 233 234 234 234 235 237 237 235 233 231 229 230 233 236 241 245 248 251 254 256 258 260
255 253 249 246 249 251 255 259 260 261 264 266 268 271 274 277 277 275 275 278 280 281 282 282 281 280 279 276 274 274 274 272 271 274 274 270 272 276 275 274 275 274 271 264 253 244 240 238 234 231 230 229 231 233 235 236 236 237 236 235 234 233 232 232 233 232 233 234 235 236 235 234 233 232 232 233 235 238 241 245 248 251 252 252 254 257
252 253 250 246 247 254 261 265 266 266 267 269 270 272 274 276 278 279 280 282 282 281 282 282 281 278 277 275 274 274 275 273 271 267 261 259 264 266 265 268 272 274 275 270 257 249 244 239 235 234 233 233 233 233 234 234 234 234 234 234 234 234 233 233 232 232 232 233 233 234 234 234 234 234 235 236 238 240 242 244 246 248 250 252 254 255
Height
3127 3128 3126 3125 3125 3128 3132 3136 3140 3143 3146 3147 3150 3151 3152 3153 3154 3155 3158 3160 3161 3160 3158 3158 3158 3156 3156 3157 3160 3163 3163 3162 3162 3162 3163 3164 3165 3165 3165 3165 3165 3165 3166 3168 3169 3169 3170 3171 3172 3172 3173 3173 3174 3174 3175 3176 3177 3178 3179 3179 3181 3182 3182 3182 3182 3183 3183 3184 3185 3186 3187 3188 3188 3189 3189 3189 3190 3191 3191 3191 3191 3192 3192 3192 3193 3193
3124 3122 3119 3120 3124 3130 3134 3137 3140 3142 3143 3145 3148 3149 3150 3151 3151 3154 3157 3158 3160 3158 3154 3157 3156 3152 3153 3154 3156 3158 3158 3158 3159 3159 3160 3161 3162 3161 3161 3161 3162 3162 3163 3165 3165 3165 3166 3167 3168 3169 3169 3169 3170 3171 3172 3173 3174 3176 3176 3177 3178 3179 3179 3180 3181 3181 3181 3182 3183 3184 3184 3185 3185 3186 3186 3187 3187 3188 3188 3188 3189 3190 3190 3190 3190 3190
3119 3116 3114 3119 3126 3131 3133 3135 3139 3140 3141 3143 3145 3147 3147 3148 3150 3153 3155 3157 3159 3155 3153 3155 3152 3148 3150 3150 3151 3153 3153 3154 3156 3156 3157 3157 3158 3158 3158 3158 3159 3159 3160 3161 3161 3162 3162 3163 3164 3165 3165 3166 3167 3168 3169 3169 3171 3172 3173 3175 3176 3176 3177 3178 3178 3179 3179 3180 3181 3181 3182 3182 3182 3182 3183 3183 3183 3184 3184 3186 3187 3187 3188 3188 3188 3188
3110 3108 3112 3120 3126 3128 3130 3132 3136 3138 3139 3141 3142 3144 3143 3146 3149 3150 3152 3155 3156 3154 3152 3153 3149 3144 3145 3145 3145 3147 3149 3150 3152 3152 3153 3154 3154 3154 3155 3155 3155 3156 3156 3157 3158 3158 3159 3159 3160 3160 3161 3162 3163 3164 3165 3166 3167 3168 3170 3172 3173 3174 3174 3175 3176 3177 3177 3178 3178 3178 3179 3179 3179 3179 3180 3180 3180 3181 3182 3183 3185 3185 3186 3185 3185 3186
3103 3105 3112 3120 3122 3123 3126 3128 3132 3135 3136 3138 3139 3140 3140 3144 3147 3148 3152 3154 3154 3153 3150 3152 3148 3138 3138 3140 3138 3143 3146 3145 3147 3148 3149 3150 3151 3151 3152 3152 3152 3152 3153 3153 3154 3155 3155 3155 3156 3156 3157 3158 3158 3159 3161 3162 3164 3165 3167 3169 3170 3171 3172 3173 3173 3174 3174 3174 3175 3175 3176 3176 3176 3177 3177 3178 3178 3180 3181 3181 3182 3183 3183 3182 3183 3183
3103 3105 3110 3116 3116 3119 3123 3124 3127 3130 3133 3135 3134 3136 3139 3142 3146 3148 3151 3152 3152 3150 3148 3153 3147 3130 3129 3135 3134 3138 3142 3141 3143 3144 3144 3146 3147 3148 3148 3148 3149 3149 3150 3150 3150 3151 3151 3151 3152 3152 3153 3153 3154 3155 3157 3159 3161 3162 3164 3165 3166 3167 3169 3170 3170 3171 3171 3171 3172 3172 3172 3173 3174 3174 3175 3176 3177 3178 3178 3178 3179 3179 3179 3179 3179 3180
3101 3104 3108 3112 3113 3116 3120 3121 3123 3127 3130 3130 3128 3133 3139 3141 3145 3147 3148 3150 3149 3147 3146 3151 3146 3129 3125 3129 3131 3135 3136 3136 3139 3139 3139 3142 3143 3144 3144 3145 3146 3146 3146 3146 3146 3147 3147 3147 3148 3148 3149 3149 3150 3153 3154 3155 3156 3158 3160 3161 3162 3164 3165 3166 3167 3167 3167 3167 3168 3168 3169 3170 3171 3171 3173 3174 3174 3174 3175 3175 3175 3175 3175 3175 3176 3176
3097 3101 3104 3108 3111 3113 3115 3114 3118 3124 3126 3125 3125 3134 3139 3140 3144 3145 3147 3148 3146 3145 3146 3146 3146 3135 3122 3120 3127 3132 3132 3131 3133 3134 3136 3138 3140 3141 3141 3142 3142 3142 3143 3143 3142 3142 3143 3143 3143 3144 3145 3146 3148 3150 3150 3150 3152 3154 3155 3157 3158 3160 3161 3162 3163 3163 3164 3164 3164 3165 3166 3167 3167 3168 3170 3171 3171 3171 3171 3171 3172 3172 3172 3172 3172 3173
3093 3095 3097 3102 3105 3106 3107 3109 3115 3121 3125 3124 3127 3134 3137 3140 3143 3144 3146 3147 3145 3146 3143 3141 3146 3138 3117 3112 3122 3127 3127 3125 3126 3130 3133 3135 3137 3137 3138 3138 3138 3139 3139 3139 3138 3138 3138 3139 3139 3140 3141 3143 3144 3145 3146 3146 3148 3149 3150 3152 3153 3154 3156 3157 3158 3159 3160 3160 3161 3161 3162 3163 3164 3165 3167 3167 3167 3168 3168 3168 3168 3168 3168 3169 3169 3170
3092 3093 3096 3099 3099 3100 3103 3108 3115 3120 3123 3125 3128 3132 3136 3140 3141 3143 3145 3145 3146 3143 3136 3136 3144 3138 3115 3107 3118 3121 3118 3119 3121 3127 3130 3131 3133 3133 3134 3135 3135 3136 3135 3134 3134 3134 3135 3135 3136 3137 3137 3138 3140 3141 3142 3143 3143 3144 3145 3146 3147 3148 3150 3152 3153 3154 3155 3156 3157 3157 3158 3159 3161 3162 3163 3163 3163 3164 3164 3165 3165 3165 3165 3165 3166 3166
3090 3093 3096 3096 3097 3100 3104 3108 3114 3118 3122 3125 3128 3131 3136 3139 3140 3143 3143 3144 3147 3138 3129 3131 3137 3139 3119 3100 3107 3113 3110 3115 3120 3123 3126 3128 3130 3130 3130 3131 3132 3132 3132 3131 3131 3131 3131 3132 3132 3133 3133 3134 3136 3137 3138 3138 3139 3140 3141 3141 3142 3144 3145 3146 3148 3149 3150 3152 3152 3153 3154 3155 3157 3158 3158 3158 3159 3160 3160 3161 3162 3162 3162 3161 3162 3162
3087 3089 3091 3093 3096 3100 3105 3108 3112 3117 3120 3124 3127 3129 3134 3138 3138 3141 3141 3143 3144 3129 3122 3125 3130 3138 3121 3094 3098 3106 3106 3113 3117 3119 3123 3124 3126 3126 3127 3128 3128 3129 3128 3128 3128 3128 3128 3128 3128 3129 3129 3131 3132 3133 3134 3135 3136 3137 3137 3138 3138 3139 3140 3141 3143 3144 3145 3147 3147 3149 3151 3152 3154 3154 3154 3154 3156 3156 3157 3158 3158 3158 3158 3158 3158 3158
3083 3084 3087 3091 3093 3096 3101 3105 3110 3114 3117 3120 3123 3126 3131 3135 3136 3136 3134 3134 3132 3121 3116 3120 3124 3127 3110 3091 3097 3104 3104 3110 3114 3116 3121 3121 3122 3123 3123 3124 3124 3125 3125 3125 3125 3124 3124 3124 3124 3125 3127 3128 3129 3130 3131 3132 3133 3133 3134 3134 3134 3135 3137 3137 3138 3138 3140 3141 3143 3145 3146 3148 3149 3149 3150 3151 3152 3153 3153 3154 3154 3154 3154 3155 3155 3154
3079 3082 3085 3087 3088 3091 3095 3098 3101 3105 3109 3111 3112 3116 3120 3125 3128 3127 3125 3124 3122 3116 3114 3119 3121 3116 3101 3091 3096 3099 3102 3108 3110 3114 3117 3117 3119 3119 3120 3121 3121 3121 3121 3121 3121 3121 3121 3121 3121 3122 3123 3124 3126 3127 3128 3128 3129 3130 3130 3131 3131 3132 3133 3133 3133 3134 3135 3136 3138 3141 3142 3144 3145 3145 3146 3147 3148 3149 3149 3150 3150 3151 3151 3151 3151 3151
3075 3076 3078 3080 3082 3085 3087 3089 3090 3094 3098 3099 3102 3107 3109 3112 3115 3116 3117 3117 3116 3115 3115 3118 3115 3105 3095 3090 3091 3095 3100 3104 3105 3109 3112 3113 3114 3115 3116 3117 3117 3118 3118 3117 3117 3117 3117 3118 3119 3119 3119 3120 3122 3123 3124 3125 3126 3126 3127 3127 3128 3128 3129 3129 3129 3129 3130 3132 3134 3136 3138 3139 3140 3141 3142 3143 3144 3145 3146 3146 3147 3147 3147 3147 3148 3148
3072 3071 3073 3077 3079 3081 3082 3085 3089 3094 3097 3099 3104 3107 3104 3105 3109 3111 3113 3112 3114 3114 3112 3111 3103 3093 3090 3089 3089 3094 3097 3099 3103 3105 3107 3109 3110 3111 3112 3113 3114 3115 3115 3115 3114 3115 3115 3116 3116 3116 3116 3117 3118 3119 3120 3121 3122 3123 3124 3124 3124 3125 3125 3125 3124 3125 3126 3128 3130 3131 3133 3135 3136 3137 3138 3139 3141 3142 3142 3143 3143 3143 3144 3144 3144 3145
3068 3070 3071 3074 3077 3078 3080 3083 3087 3090 3093 3096 3098 3097 3097 3102 3105 3108 3110 3110 3113 3112 3106 3103 3096 3090 3090 3086 3085 3091 3093 3096 3101 3101 3104 3107 3108 3108 3108 3109 3111 3111 3112 3112 3112 3113 3113 3113 3113 3113 3114 3114 3115 3116 3117 3118 3119 3119 3120 3120 3120 3121 3121 3121 3121 3121 3122 3123 3125 3126 3128 3130 3131 3132 3134 3135 3137 3138 3138 3138 3138 3139 3140 3140 3141 3141
3066 3068 3068 3071 3073 3075 3079 3083 3084 3085 3088 3089 3088 3090 3096 3102 3103 3106 3108 3108 3112 3109 3101 3097 3091 3089 3091 3082 3077 3085 3088 3089 3095 3098 3101 3103 3104 3105 3105 3106 3107 3107 3108 3108 3109 3110 3110 3110 3110 3110 3111 3111 3112 3113 3114 3115 3115 3116 3116 3117 3117 3117 3118 3118 3117 3117 3118 3119 3120 3122 3123 3125 3127 3128 3129 3131 3132 3133 3132 3133 3134 3135 3135 3136 3137 3137
3065 3067 3066 3068 3071 3073 3078 3081 3080 3081 3084 3083 3084 3088 3092 3094 3096 3100 3102 3102 3105 3103 3095 3091 3086 3083 3082 3074 3072 3080 3083 3085 3090 3094 3097 3098 3098 3100 3100 3102 3104 3104 3105 3105 3105 3106 3106 3107 3107 3107 3108 3108 3109 3110 3111 3111 3112 3112 3113 3113 3113 3114 3114 3114 3114 3114 3114 3114 3116 3117 3119 3121 3122 3123 3125 3126 3128 3128 3127 3129 3130 3131 3131 3132 3132 3132
3062 3065 3064 3065 3069 3072 3074 3075 3073 3075 3079 3081 3085 3087 3087 3088 3089 3091 3093 3093 3096 3095 3090 3087 3081 3073 3067 3066 3071 3077 3080 3084 3088 3090 3093 3095 3095 3095 3097 3099 3101 3101 3102 3102 3102 3102 3102 3104 3104 3104 3105 3105 3106 3106 3107 3108 3108 3108 3109 3109 3109 3110 3110 3110 3110 3110 3110 3111 3112 3113 3115 3116 3118 3119 3120 3121 3122 3122 3123 3125 3126 3126 3127 3128 3128 3128
3058 3061 3061 3062 3065 3067 3067 3067 3066 3068 3070 3072 3076 3078 3080 3083 3086 3087 3088 3087 3088 3089 3086 3083 3074 3061 3058 3063 3069 3073 3077 3080 3084 3086 3091 3094 3094 3093 3094 3095 3096 3097 3098 3099 3099 3099 3099 3100 3101 3101 3102 3102 3102 3103 3103 3103 3103 3104 3104 3104 3105 3106 3106 3106 3106 3106 3107 3107 3108 3109 3111 3112 3113 3114 3115 3116 3117 3117 3119 3120 3121 3122 3122 3122 3123 3124
3053 3055 3057 3058 3058 3059 3061 3063 3063 3063 3062 3062 3063 3064 3065 3070 3076 3080 3081 3081 3082 3081 3079 3078 3067 3054 3056 3063 3066 3070 3074 3076 3080 3083 3086 3091 3092 3090 3090 3091 3091 3092 3094 3095 3096 3096 3097 3097 3098 3098 3098 3098 3099 3099 3099 3099 3099 3100 3100 3101 3101 3102 3102 3103 3103 3103 3103 3104 3104 3105 3107 3108 3108 3110 3110 3111 3112 3113 3114 3115 3116 3117 3117 3117 3118 3119
3047 3050 3051 3052 3052 3054 3057 3060 3060 3060 3061 3061 3059 3059 3062 3066 3069 3071 3072 3073 3076 3075 3074 3075 3066 3053 3055 3062 3063 3066 3070 3072 3075 3078 3080 3085 3087 3087 3089 3090 3090 3090 3091 3092 3093 3093 3094 3095 3095 3095 3095 3095 3095 3095 3095 3095 3095 3096 3096 3097 3097 3098 3099 3099 3099 3100 3100 3100 3101 3102 3102 3103 3104 3105 3106 3106 3107 3108 3109 3110 3110 3111 3111 3111 3112 3112
3044 3046 3047 3049 3050 3052 3054 3056 3056 3056 3057 3056 3055 3057 3059 3061 3064 3065 3066 3068 3070 3069 3070 3073 3066 3053 3053 3059 3060 3063 3066 3068 3071 3073 3076 3080 3082 3085 3087 3088 3088 3088 3089 3090 3090 3091 3092 3091 3092 3092 3092 3092 3092 3092 3092 3092 3092 3092 3092 3093 3093 3094 3095 3095 3095 3096 3096 3097 3098 3098 3099 3099 3100 3100 3101 3102 3103 3103 3104 3104 3104 3105 3105 3105 3106 3106
3039 3041 3044 3047 3048 3048 3050 3052 3052 3051 3052 3050 3050 3052 3054 3057 3061 3063 3065 3067 3066 3063 3065 3068 3062 3051 3049 3055 3057 3059 3062 3064 3067 3070 3073 3076 3079 3081 3084 3086 3086 3086 3086 3088 3088 3088 3088 3088 3089 3089 3089 3090 3089 3089 3089 3088 3088 3088 3088 3089 3089 3090 3090 3091 3091 3092 3092 3093 3094 3094 3095 3095 3096 3096 3097 3097 3098 3098 3099 3099 3099 3099 3099 3100 3100 3101
3032 3033 3035 3038 3039 3040 3040 3041 3041 3042 3046 3046 3046 3048 3049 3053 3055 3056 3059 3060 3057 3056 3059 3059 3054 3048 3048 3052 3054 3056 3059 3061 3064 3067 3069 3072 3075 3077 3080 3082 3083 3083 3084 3085 3085 3084 3084 3085 3086 3086 3086 3087 3086 3086 3085 3085 3085 3085 3085 3086 3086 3086 3087 3087 3087 3088 3088 3089 3090 3091 3091 3092 3092 3092 3092 3093 3093 3094 3094 3094 3095 3095 3095 3095 3096 3096
3028 3027 3029 3029 3030 3031 3032 3033 3034 3036 3039 3042 3043 3044 3044 3045 3047 3050 3051 3049 3048 3051 3051 3050 3050 3048 3046 3048 3050 3051 3055 3057 3059 3062 3064 3067 3070 3073 3076 3077 3078 3079 3081 3081 3080 3080 3080 3081 3082 3083 3083 3083 3082 3082 3082 3082 3082 3082 3082 3083 3083 3083 3083 3084 3084 3084 3085 3086 3086 3087 3087 3087 3088 3088 3088 3089 3089 3090 3090 3090 3091 3091 3091 3091 3091 3092
3023 3022 3024 3026 3027 3029 3031 3032 3032 3034 3037 3039 3040 3041 3041 3042 3043 3044 3043 3042 3046 3048 3044 3044 3048 3045 3039 3043 3047 3048 3050 3053 3055 3057 3060 3063 3066 3069 3071 3071 3072 3074 3076 3076 3076 3076 3076 3078 3079 3079 3079 3079 3078 3078 3078 3078 3078 3078 3079 3079 3079 3080 3080 3081 3081 3081 3082 3082 3082 3083 3083 3083 3084 3084 3085 3085 3085 3086 3086 3087 3087 3087 3087 3088 3088 3088
3018 3017 3019 3021 3021 3024 3028 3030 3030 3032 3035 3036 3038 3039 3040 3041 3040 3039 3038 3040 3043 3043 3039 3041 3045 3040 3036 3040 3045 3046 3047 3049 3052 3054 3057 3060 3062 3064 3065 3066 3067 3068 3070 3071 3072 3072 3073 3074 3075 3075 3074 3074 3074 3073 3074 3074 3074 3075 3075 3075 3076 3076 3077 3077 3078 3078 3078 3079 3079 3079 3079 3080 3080 3081 3081 3082 3082 3083 3083 3084 3084 3084 3084 3084 3084 3084
3013 3012 3014 3016 3016 3017 3020 3024 3025 3028 3030 3032 3033 3035 3037 3038 3037 3037 3036 3038 3040 3041 3040 3043 3043 3040 3036 3037 3041 3045 3046 3047 3050 3052 3054 3056 3058 3060 3061 3062 3063 3063 3065 3067 3068 3069 3069 3070 3071 3070 3069 3069 3069 3069 3070 3070 3070 3071 3071 3071 3072 3072 3073 3074 3074 3075 3075 3075 3075 3076 3076 3076 3077 3077 3078 3078 3079 3080 3080 3080 3081 3081 3081 3081 3081 3081
3009 3008 3010 3013 3013 3011 3013 3018 3020 3022 3024 3026 3027 3029 3032 3034 3035 3036 3035 3037 3039 3040 3040 3041 3039 3036 3033 3033 3037 3041 3042 3043 3045 3047 3049 3051 3053 3056 3058 3058 3059 3059 3059 3062 3064 3064 3065 3066 3065 3065 3064 3065 3065 3065 3066 3066 3067 3067 3067 3067 3068 3069 3069 3070 3070 3071 3071 3072 3072 3072 3073 3073 3073 3074 3075 3075 3076 3076 3076 3077 3077 3077 3077 3077 3077 3077
3005 3004 3006 3009 3008 3006 3009 3014 3015 3017 3020 3020 3019 3023 3027 3028 3029 3030 3030 3031 3033 3034 3036 3038 3036 3031 3029 3030 3034 3036 3036 3037 3038 3040 3043 3046 3049 3051 3052 3052 3053 3053 3053 3056 3058 3060 3061 3061 3060 3060 3060 3061 3061 3061 3062 3062 3062 3062 3063 3063 3064 3064 3065 3066 3067 3067 3067 3068 3068 3069 3069 3070 3070 3071 3071 3072 3072 3072 3073 3073 3073 3073 3073 3073 3073 3073
3000 3001 3002 3004 3003 3002 3004 3007 3011 3015 3014 3007 3008 3015 3020 3021 3022 3023 3024 3025 3028 3031 3033 3032 3029 3027 3027 3028 3030 3031 3031 3031 3031 3034 3038 3040 3043 3045 3044 3045 3046 3047 3048 3051 3053 3054 3055 3055 3055 3055 3056 3056 3056 3057 3058 3058 3058 3058 3059 3059 3059 3060 3061 3062 3063 3063 3064 3064 3065 3065 3066 3066 3067 3067 3068 3068 3069 3069 3069 3069 3069 3069 3069 3069 3069 3069
2996 2998 2999 3000 2999 2998 3000 3004 3009 3007 2998 2994 3001 3008 3012 3014 3016 3018 3018 3020 3023 3026 3028 3027 3027 3026 3025 3024 3025 3024 3025 3027 3028 3030 3032 3034 3036 3037 3037 3038 3040 3041 3043 3045 3046 3048 3048 3048 3050 3051 3051 3052 3052 3053 3053 3053 3053 3054 3055 3055 3055 3056 3057 3058 3059 3059 3060 3061 3061 3062 3062 3063 3063 3064 3064 3064 3065 3065 3066 3066 3066 3066 3066 3066 3065 3065
2992 2994 2996 2997 2997 2996 2998 3002 3002 2994 2988 2994 3001 3004 3006 3010 3013 3015 3015 3016 3019 3022 3023 3024 3023 3019 3016 3017 3020 3020 3021 3024 3025 3025 3026 3026 3027 3029 3031 3032 3034 3035 3037 3038 3040 3042 3043 3043 3044 3046 3047 3048 3048 3048 3048 3048 3049 3050 3050 3050 3051 3052 3053 3053 3054 3055 3056 3057 3058 3058 3059 3059 3059 3060 3060 3061 3061 3062 3062 3062 3062 3062 3062 3062 3062 3061
2989 2990 2992 2993 2995 2995 2995 2995 2992 2987 2989 2995 2997 2997 3003 3008 3011 3013 3012 3010 3011 3013 3014 3015 3014 3011 3012 3015 3017 3017 3018 3020 3019 3018 3018 3018 3020 3023 3025 3027 3029 3030 3030 3032 3034 3036 3037 3039 3040 3041 3042 3043 3044 3044 3043 3043 3044 3044 3044 3045 3046 3047 3048 3049 3050 3051 3052 3053 3054 3054 3054 3055 3055 3056 3056 3057 3057 3058 3058 3058 3058 3058 3058 3058 3058 3058
2988 2988 2989 2991 2992 2992 2991 2989 2988 2988 2988 2989 2989 2992 2998 3001 3003 3005 3002 2998 3000 3006 3010 3012 3012 3010 3009 3009 3010 3013 3015 3015 3013 3008 3007 3010 3014 3018 3021 3022 3024 3025 3025 3026 3027 3030 3032 3033 3034 3035 3036 3037 3038 3038 3038 3039 3039 3038 3039 3039 3040 3042 3043 3044 3045 3047 3047 3048 3049 3049 3050 3050 3051 3052 3052 3053 3053 3054 3054 3054 3054 3054 3054 3054 3054 3054
2986 2987 2988 2990 2990 2990 2990 2989 2988 2987 2984 2984 2987 2990 2994 2996 2998 3001 2998 2992 2995 3004 3008 3007 3006 3003 3000 3001 3005 3009 3012 3012 3005 2996 2994 3003 3012 3016 3017 3017 3017 3019 3020 3021 3022 3024 3026 3028 3029 3030 3030 3030 3031 3032 3033 3034 3033 3033 3033 3034 3035 3036 3037 3039 3041 3042 3043 3044 3044 3045 3045 3045 3046 3047 3048 3049 3049 3050 3050 3050 3050 3050 3050 3050 3050 3050
2982 2984 2986 2987 2987 2987 2989 2989 2988 2985 2982 2984 2987 2988 2990 2991 2994 3000 2997 2988 2988 2998 3001 3001 2999 2994 2993 2998 3003 3007 3010 3006 2993 2984 2988 3000 3009 3013 3013 3012 3011 3012 3014 3015 3016 3018 3020 3022 3023 3024 3024 3023 3024 3027 3029 3029 3028 3028 3028 3029 3030 3030 3032 3035 3037 3037 3038 3038 3039 3039 3040 3040 3041 3042 3043 3044 3045 3045 3046 3046 3046 3046 3047 3047 3046 3046
2979 2980 2982 2983 2983 2984 2986 2987 2986 2983 2982 2983 2984 2985 2986 2988 2990 2995 2991 2982 2982 2990 2994 2995 2992 2989 2992 3000 3002 3003 3003 2994 2983 2983 2993 3000 3004 3006 3006 3006 3005 3005 3006 3007 3009 3011 3013 3015 3016 3016 3017 3017 3020 3023 3024 3023 3023 3022 3023 3024 3024 3025 3028 3031 3032 3032 3032 3033 3033 3033 3034 3035 3036 3037 3038 3039 3040 3040 3041 3042 3042 3042 3042 3042 3042 3042
2976 2978 2978 2979 2980 2981 2982 2983 2982 2980 2979 2981 2983 2984 2986 2988 2987 2986 2984 2981 2982 2986 2989 2990 2989 2988 2993 2999 2997 2993 2991 2987 2985 2990 2995 2996 2996 2998 2999 2999 2999 2998 2999 3000 3002 3004 3006 3007 3008 3009 3011 3013 3015 3017 3017 3017 3017 3017 3018 3019 3019 3021 3024 3026 3026 3026 3027 3027 3028 3028 3028 3029 3030 3031 3033 3034 3035 3036 3036 3037 3037 3037 3038 3038 3038 3038
2973 2975 2975 2975 2977 2978 2978 2981 2980 2975 2975 2979 2981 2982 2985 2985 2980 2977 2980 2982 2982 2983 2986 2987 2986 2988 2992 2993 2991 2987 2986 2987 2988 2989 2990 2990 2991 2992 2993 2994 2993 2992 2992 2994 2995 2997 2998 3000 3001 3003 3005 3008 3010 3010 3011 3011 3010 3011 3012 3012 3014 3017 3019 3019 3020 3021 3021 3022 3022 3023 3023 3024 3025 3026 3028 3029 3030 3030 3031 3032 3032 3033 3033 3034 3034 3034
2970 2971 2971 2971 2973 2974 2976 2978 2976 2972 2974 2978 2977 2977 2979 2978 2976 2976 2979 2981 2981 2982 2983 2983 2984 2987 2988 2987 2986 2984 2983 2985 2985 2984 2986 2987 2986 2986 2988 2988 2987 2987 2988 2989 2989 2990 2992 2993 2994 2996 2999 3002 3004 3004 3004 3004 3003 3004 3005 3007 3010 3013 3013 3014 3015 3015 3016 3017 3017 3018 3019 3019 3020 3021 3022 3023 3025 3025 3026 3027 3027 3028 3029 3029 3029 3029
2968 2968 2968 2968 2969 2970 2969 2969 2969 2970 2973 2973 2971 2971 2973 2973 2975 2978 2979 2977 2978 2978 2978 2979 2981 2983 2983 2982 2982 2980 2979 2980 2980 2980 2981 2981 2981 2982 2983 2983 2982 2982 2983 2984 2984 2985 2986 2986 2988 2990 2993 2995 2997 2997 2997 2997 2997 2998 3000 3003 3006 3007 3007 3008 3009 3010 3011 3012 3012 3013 3014 3014 3015 3016 3017 3018 3019 3021 3022 3022 3023 3024 3024 3024 3025 3025
2963 2964 2965 2965 2964 2964 2962 2962 2964 2967 2968 2966 2965 2967 2969 2970 2972 2975 2974 2973 2973 2973 2974 2975 2977 2979 2979 2978 2977 2975 2975 2975 2976 2975 2976 2976 2976 2977 2977 2977 2976 2976 2977 2978 2979 2979 2979 2980 2981 2984 2986 2988 2990 2991 2991 2991 2991 2993 2996 2998 3000 3000 3001 3003 3003 3004 3006 3007 3008 3009 3009 3010 3010 3011 3012 3013 3014 3016 3017 3018 3019 3019 3020 3020 3021 3021
2958 2960 2961 2961 2961 2960 2959 2960 2962 2963 2963 2962 2962 2964 2966 2967 2968 2970 2970 2968 2967 2969 2971 2971 2972 2974 2975 2973 2972 2970 2970 2971 2972 2971 2971 2971 2970 2971 2971 2971 2970 2970 2971 2972 2973 2973 2974 2974 2974 2977 2979 2982 2984 2985 2984 2985 2986 2988 2991 2993 2993 2994 2996 2997 2998 2999 3001 3002 3003 3004 3004 3005 3006 3006 3007 3008 3009 3010 3012 3013 3014 3015 3016 3016 3017 3017
2954 2956 2957 2957 2958 2957 2955 2956 2958 2959 2959 2959 2959 2960 2962 2963 2964 2965 2965 2963 2962 2964 2966 2967 2968 2969 2970 2969 2968 2966 2965 2967 2967 2966 2966 2967 2965 2965 2966 2965 2964 2964 2964 2964 2966 2967 2966 2966 2967 2969 2972 2975 2977 2978 2979 2980 2982 2984 2986 2987 2988 2989 2990 2992 2993 2995 2996 2997 2998 2999 3000 3001 3001 3001 3002 3003 3004 3006 3007 3008 3010 3011 3012 3013 3013 3013
2949 2951 2952 2953 2953 2953 2952 2953 2955 2955 2954 2953 2954 2955 2957 2959 2960 2960 2960 2959 2959 2959 2961 2961 2962 2964 2965 2965 2963 2961 2961 2962 2962 2961 2961 2962 2960 2960 2960 2960 2959 2958 2956 2956 2958 2958 2958 2959 2961 2963 2966 2969 2971 2972 2973 2975 2977 2979 2981 2982 2984 2985 2986 2987 2988 2990 2991 2992 2993 2994 2995 2996 2996 2997 2998 2999 3000 3001 3003 3004 3005 3007 3008 3009 3009 3009
2945 2946 2947 2948 2948 2948 2948 2949 2950 2949 2948 2947 2948 2949 2952 2955 2956 2955 2955 2955 2954 2954 2955 2956 2957 2958 2960 2960 2959 2957 2955 2955 2955 2956 2956 2956 2956 2956 2956 2955 2954 2952 2950 2949 2950 2950 2951 2953 2955 2958 2961 2963 2965 2966 2967 2969 2972 2973 2975 2977 2978 2979 2981 2982 2984 2985 2986 2987 2988 2989 2990 2991 2992 2993 2993 2994 2996 2997 2998 2999 3001 3002 3003 3004 3005 3005
2939 2938 2940 2942 2941 2939 2939 2941 2943 2942 2941 2941 2943 2945 2947 2949 2950 2948 2947 2948 2948 2948 2949 2950 2951 2952 2954 2954 2954 2953 2950 2948 2949 2951 2951 2951 2952 2952 2952 2951 2949 2947 2946 2945 2944 2945 2946 2948 2950 2953 2955 2957 2959 2960 2962 2964 2965 2967 2969 2971 2973 2974 2976 2977 2979 2980 2981 2982 2983 2985 2986 2987 2987 2988 2989 2990 2991 2992 2993 2995 2996 2997 2999 3000 3000 3001
2929 2929 2931 2933 2932 2931 2932 2935 2937 2937 2935 2936 2938 2939 2941 2943 2943 2941 2940 2940 2940 2941 2942 2942 2943 2945 2947 2948 2949 2948 2945 2943 2944 2945 2945 2945 2947 2948 2949 2948 2946 2945 2945 2944 2943 2943 2944 2944 2946 2949 2951 2953 2955 2956 2957 2958 2959 2961 2963 2965 2967 2969 2971 2972 2974 2975 2976 2978 2979 2980 2981 2982 2983 2984 2985 2986 2987 2988 2989 2990 2991 2993 2994 2995 2996 2997